Precipitable_Water
0.64 0.62 0.59 0.57 0.54 0.51 0.50 0.50 0.47 0.43 0.42 0.41 0.40 0.39 0.38 0.34 0.32 0.29 0.19 0.26 0.29 0.36 0.33 0.40 0.46 0.44 0.43 0.47 0.58 0.62 0.42 0.28 0.32 0.31 0.28 0.31 0.30 0.38 0.37 0.32 0.32 0.32 0.36 0.53 0.74
0.60 0.58 0.56 0.54 0.51 0.50 0.49 0.45 0.42 0.41 0.40 0.38 0.37 0.37 0.36 0.32 0.28 0.26 0.37 0.40 0.36 0.33 0.26 0.24 0.23 0.35 0.36 0.42 0.48 0.51 0.39 0.33 0.42 0.40 0.36 0.36 0.34 0.38 0.37 0.33 0.32 0.32 0.51 0.67 0.76
0.60 0.59 0.56 0.54 0.52 0.48 0.45 0.42 0.40 0.39 0.39 0.38 0.39 0.40 0.39 0.38 0.24 0.32 0.34 0.29 0.27 0.29 0.30 0.32 0.34 0.26 0.26 0.35 0.39 0.44 0.32 0.46 0.44 0.47 0.46 0.41 0.39 0.41 0.40 0.32 0.35 0.34 0.42 0.49 0.61
0.62 0.59 0.55 0.51 0.49 0.46 0.44 0.42 0.42 0.41 0.41 0.41 0.41 0.44 0.39 0.36 0.11 0.30 0.31 0.30 0.29 0.29 0.27 0.27 0.33 0.24 0.23 0.24 0.33 0.34 0.38 0.45 0.46 0.50 0.47 0.42 0.44 0.40 0.43 0.41 0.40 0.37 0.40 0.45 0.43
0.59 0.55 0.51 0.49 0.48 0.46 0.45 0.44 0.43 0.42 0.40 0.40 0.42 0.45 0.33 0.23 0.17 0.27 0.33 0.33 0.30 0.28 0.23 0.18 0.17 0.23 0.21 0.20 0.28 0.26 0.33 0.40 0.43 0.48 0.46 0.47 0.43 0.43 0.41 0.48 0.47 0.43 0.41 0.40 0.42
0.55 0.52 0.49 0.48 0.47 0.46 0.46 0.43 0.40 0.37 0.37 0.39 0.45 0.46 0.31 0.14 0.27 0.28 0.28 0.29 0.26 0.24 0.21 0.21 0.17 0.16 0.16 0.18 0.24 0.27 0.29 0.32 0.39 0.39 0.43 0.46 0.44 0.47 0.42 0.50 0.48 0.44 0.42 0.42 0.43
0.53 0.50 0.49 0.48 0.47 0.45 0.41 0.37 0.34 0.33 0.34 0.40 0.44 0.40 0.26 0.17 0.32 0.35 0.33 0.29 0.31 0.30 0.22 0.24 0.25 0.20 0.16 0.12 0.17 0.24 0.25 0.30 0.31 0.31 0.37 0.47 0.43 0.39 0.47 0.50 0.46 0.46 0.44 0.44 0.44
0.53 0.51 0.47 0.46 0.44 0.40 0.35 0.32 0.33 0.38 0.38 0.41 0.43 0.38 0.21 0.40 0.39 0.34 0.28 0.23 0.23 0.28 0.28 0.30 0.27 0.22 0.21 0.19 0.13 0.17 0.22 0.18 0.18 0.30 0.37 0.45 0.33 0.37 0.50 0.50 0.45 0.46 0.46 0.46 0.45
0.49 0.47 0.45 0.44 0.40 0.34 0.32 0.36 0.38 0.41 0.41 0.43 0.38 0.36 0.23 0.37 0.28 0.25 0.33 0.33 0.35 0.32 0.28 0.24 0.32 0.23 0.21 0.16 0.14 0.11 0.11 0.12 0.15 0.30 0.34 0.41 0.32 0.39 0.50 0.51 0.48 0.47 0.48 0.48 0.48
0.48 0.46 0.43 0.40 0.35 0.35 0.42 0.40 0.38 0.42 0.38 0.43 0.39 0.27 0.26 0.19 0.25 0.27 0.33 0.34 0.31 0.31 0.28 0.23 0.22 0.19 0.17 0.15 0.10 0.09 0.10 0.15 0.17 0.22 0.31 0.36 0.34 0.39 0.44 0.48 0.47 0.50 0.49 0.50 0.49
0.46 0.43 0.41 0.38 0.36 0.43 0.44 0.34 0.25 0.28 0.26 0.18 0.17 0.21 0.20 0.24 0.28 0.25 0.33 0.32 0.35 0.29 0.20 0.26 0.19 0.14 0.15 0.16 0.18 0.19 0.21 0.14 0.17 0.24 0.29 0.29 0.33 0.37 0.41 0.45 0.44 0.48 0.49 0.50 0.51
0.44 0.42 0.39 0.37 0.44 0.49 0.51 0.30 0.31 0.32 0.17 0.28 0.30 0.30 0.29 0.28 0.22 0.26 0.37 0.31 0.28 0.19 0.26 0.26 0.21 0.21 0.21 0.23 0.23 0.19 0.19 0.21 0.20 0.25 0.33 0.33 0.36 0.36 0.41 0.42 0.42 0.44 0.47 0.49 0.53
0.42 0.40 0.37 0.36 0.45 0.48 0.43 0.35 0.42 0.38 0.20 0.28 0.31 0.29 0.25 0.25 0.20 0.27 0.38 0.31 0.22 0.19 0.24 0.21 0.27 0.29 0.23 0.22 0.24 0.20 0.19 0.20 0.21 0.29 0.42 0.44 0.36 0.38 0.42 0.46 0.44 0.43 0.46 0.51 0.55
0.42 0.40 0.37 0.36 0.43 0.46 0.36 0.41 0.41 0.41 0.18 0.24 0.23 0.24 0.21 0.21 0.24 0.34 0.44 0.35 0.25 0.20 0.25 0.26 0.32 0.35 0.27 0.23 0.29 0.17 0.22 0.22 0.22 0.24 0.28 0.43 0.28 0.37 0.42 0.44 0.41 0.42 0.46 0.50 0.56
0.42 0.40 0.40 0.44 0.38 0.39 0.39 0.38 0.43 0.41 0.10 0.21 0.21 0.23 0.19 0.23 0.24 0.27 0.42 0.37 0.27 0.21 0.26 0.22 0.31 0.39 0.35 0.29 0.31 0.19 0.18 0.17 0.20 0.24 0.33 0.39 0.35 0.30 0.37 0.39 0.37 0.40 0.44 0.48 0.50
0.45 0.41 0.42 0.46 0.50 0.46 0.43 0.46 0.44 0.21 0.13 0.16 0.16 0.13 0.15 0.21 0.24 0.30 0.35 0.42 0.37 0.27 0.29 0.27 0.37 0.41 0.40 0.34 0.30 0.21 0.18 0.20 0.25 0.32 0.27 0.30 0.31 0.24 0.30 0.35 0.38 0.41 0.45 0.48 0.50
0.39 0.38 0.37 0.43 0.37 0.45 0.41 0.41 0.20 0.14 0.19 0.12 0.09 0.15 0.18 0.19 0.21 0.28 0.29 0.27 0.28 0.22 0.21 0.23 0.27 0.36 0.40 0.31 0.32 0.23 0.18 0.20 0.22 0.24 0.20 0.28 0.28 0.21 0.27 0.32 0.38 0.39 0.43 0.50 0.54
0.40 0.38 0.43 0.42 0.44 0.39 0.44 0.29 0.15 0.17 0.13 0.11 0.15 0.17 0.17 0.21 0.21 0.25 0.28 0.22 0.33 0.34 0.27 0.25 0.25 0.39 0.38 0.39 0.22 0.21 0.23 0.22 0.18 0.17 0.18 0.26 0.18 0.16 0.28 0.35 0.39 0.42 0.51 0.54 0.54
0.44 0.46 0.43 0.40 0.43 0.47 0.33 0.18 0.13 0.11 0.12 0.14 0.16 0.15 0.16 0.19 0.22 0.24 0.28 0.27 0.30 0.34 0.28 0.25 0.25 0.38 0.41 0.47 0.38 0.23 0.23 0.32 0.26 0.28 0.20 0.19 0.21 0.29 0.35 0.39 0.44 0.48 0.53 0.57 0.64
0.40 0.41 0.40 0.47 0.41 0.43 0.24 0.15 0.14 0.16 0.17 0.19 0.14 0.17 0.14 0.18 0.19 0.22 0.24 0.30 0.26 0.35 0.42 0.34 0.24 0.35 0.39 0.44 0.34 0.24 0.27 0.21 0.25 0.18 0.19 0.28 0.25 0.27 0.38 0.42 0.58 0.58 0.61 0.71 0.73
0.42 0.35 0.48 0.46 0.47 0.35 0.18 0.20 0.17 0.18 0.20 0.19 0.16 0.16 0.18 0.18 0.20 0.24 0.23 0.27 0.28 0.31 0.37 0.35 0.31 0.27 0.40 0.37 0.31 0.29 0.26 0.28 0.38 0.31 0.24 0.24 0.29 0.49 0.44 0.46 0.59 0.63 0.68 0.77 0.75
0.40 0.28 0.45 0.31 0.28 0.31 0.23 0.19 0.21 0.19 0.25 0.22 0.23 0.19 0.19 0.20 0.19 0.22 0.24 0.26 0.30 0.36 0.29 0.37 0.32 0.23 0.27 0.38 0.39 0.36 0.32 0.32 0.28 0.27 0.27 0.27 0.33 0.61 0.59 0.65 0.61 0.65 0.71 0.78 0.77
0.35 0.33 0.39 0.39 0.25 0.25 0.25 0.21 0.21 0.21 0.18 0.21 0.20 0.23 0.26 0.20 0.18 0.23 0.27 0.29 0.27 0.29 0.36 0.38 0.29 0.20 0.23 0.27 0.37 0.36 0.33 0.32 0.32 0.33 0.26 0.24 0.32 0.59 0.64 0.64 0.68 0.65 0.70 0.71 0.70
0.34 0.23 0.33 0.33 0.29 0.24 0.20 0.20 0.19 0.26 0.23 0.21 0.23 0.27 0.22 0.19 0.22 0.21 0.22 0.25 0.25 0.25 0.36 0.36 0.33 0.31 0.23 0.28 0.36 0.29 0.30 0.30 0.27 0.26 0.25 0.30 0.39 0.50 0.54 0.60 0.65 0.65 0.66 0.63 0.62
0.33 0.29 0.28 0.24 0.26 0.24 0.19 0.19 0.17 0.19 0.25 0.24 0.22 0.23 0.20 0.16 0.18 0.21 0.19 0.15 0.21 0.25 0.29 0.29 0.24 0.32 0.32 0.36 0.40 0.38 0.33 0.33 0.25 0.26 0.24 0.32 0.37 0.49 0.56 0.60 0.64 0.64 0.60 0.56 0.52
0.24 0.31 0.31 0.28 0.25 0.22 0.21 0.19 0.19 0.19 0.20 0.18 0.20 0.21 0.19 0.18 0.22 0.20 0.19 0.17 0.20 0.27 0.24 0.28 0.22 0.28 0.28 0.36 0.35 0.34 0.36 0.33 0.31 0.32 0.37 0.40 0.42 0.59 0.62 0.63 0.61 0.57 0.55 0.51 0.45
0.40 0.38 0.32 0.28 0.25 0.24 0.25 0.21 0.20 0.22 0.23 0.24 0.21 0.19 0.21 0.26 0.28 0.24 0.23 0.33 0.32 0.29 0.30 0.27 0.25 0.23 0.21 0.27 0.32 0.31 0.36 0.34 0.39 0.43 0.39 0.34 0.46 0.56 0.55 0.54 0.53 0.54 0.52 0.46 0.44
Wind_Speed
20 20 20 19 19 19 20 20 21 21 22 23 24 25 26 27 29 27 25 25 25 26 27 28 29 29 29 29 29 28 31 35 33 32 31 26 25 21 20 22 22 21 20 20 22
21 21 20 19 19 19 20 21 22 23 24 24 25 26 27 28 27 24 22 22 23 25 26 28 30 30 31 30 30 31 33 38 31 32 33 31 30 27 23 24 24 22 20 21 21
21 21 20 20 20 21 21 22 23 24 25 26 27 27 28 28 25 21 21 23 25 25 26 27 28 30 34 34 35 36 44 35 34 35 36 35 34 31 26 26 26 26 26 25 25
21 21 21 21 22 22 23 24 25 26 26 27 27 28 29 26 22 24 30 30 30 31 31 30 29 29 29 34 35 41 45 41 41 38 37 38 33 32 30 29 25 26 27 28 29
23 23 23 23 23 24 25 25 26 27 28 29 29 29 27 26 28 30 30 30 31 32 33 33 34 34 37 34 37 45 41 43 43 41 44 42 41 36 38 31 28 26 24 28 30
23 23 23 24 24 25 26 27 28 28 29 30 30 29 28 28 28 30 32 34 35 35 36 36 37 37 42 42 40 38 44 45 43 46 46 44 44 36 42 35 33 31 29 26 28
24 24 24 25 25 25 26 27 27 27 28 28 28 28 29 32 31 31 32 34 34 36 39 40 40 41 38 42 41 44 44 43 48 49 47 41 43 50 39 37 36 35 34 32 28
24 24 24 24 25 25 26 27 27 27 27 27 27 28 29 30 30 32 34 38 39 39 40 40 44 46 44 46 50 44 40 45 54 46 45 39 48 48 39 39 40 38 37 36 36
25 24 23 24 24 25 26 26 26 26 26 27 27 26 28 27 29 35 37 40 43 44 44 43 40 44 46 46 47 49 49 52 48 40 42 43 47 42 40 40 40 39 39 39 40
24 23 23 23 24 24 24 25 24 23 23 24 25 27 27 31 34 37 40 44 45 46 45 43 42 43 48 47 49 51 50 43 42 39 42 42 48 37 37 36 42 39 38 37 37
22 22 21 22 22 21 21 19 20 20 23 24 26 28 31 32 37 36 43 42 40 43 46 45 45 46 47 51 51 48 43 46 43 39 36 42 45 42 36 37 36 37 38 36 36
20 20 20 20 19 19 18 17 18 21 24 24 25 26 30 35 38 40 39 41 42 43 39 42 46 45 45 45 49 49 47 43 40 36 36 36 30 38 34 34 40 37 35 34 33
20 19 19 19 18 17 16 17 19 21 21 22 22 24 29 33 37 37 40 34 32 32 32 31 30 33 36 39 43 49 46 41 37 27 22 22 29 31 31 30 31 39 36 32 31
19 18 18 17 16 16 14 18 19 20 17 18 20 22 31 34 26 36 33 28 24 22 19 17 20 23 28 31 35 39 42 38 38 34 23 22 22 27 33 30 27 26 26 30 31
17 17 17 15 15 13 16 19 18 17 14 17 20 26 32 26 34 27 29 22 23 17 12 15 22 23 21 28 28 33 38 34 34 28 22 21 20 25 25 29 31 29 28 27 26
17 16 15 13 13 15 16 16 15 14 12 17 24 29 28 24 27 27 21 16 15 11 13 18 15 17 13 16 22 27 30 22 20 21 21 24 22 22 23 30 29 30 30 29 25
15 14 14 13 11 14 14 13 13 12 19 20 25 27 24 21 21 22 21 16 9 9 13 18 20 16 9 9 17 26 23 17 14 15 18 21 20 26 21 26 32 34 31 26 28
14 13 11 11 10 11 11 11 12 14 17 22 23 24 19 21 15 18 18 14 11 14 14 13 24 11 2 3 10 21 20 15 11 15 14 15 20 19 21 24 24 25 24 23 22
12 10 9 9 10 9 9 10 11 14 17 19 22 17 17 16 13 13 13 10 12 14 14 13 13 10 5 3 7 18 19 16 11 8 9 15 16 13 17 14 18 21 21 18 19
10 9 8 7 7 8 8 10 11 12 15 17 18 16 15 14 12 12 12 9 15 14 16 11 12 12 8 4 7 15 15 11 8 8 9 7 10 10 6 14 13 14 16 16 17
8 7 7 8 7 7 7 9 10 13 13 14 15 14 13 12 11 12 11 8 16 14 13 11 8 7 3 4 4 6 14 11 9 7 4 4 7 5 7 17 17 14 15 13 16
8 7 7 6 6 6 7 8 8 11 13 12 12 12 11 12 8 10 10 12 17 15 13 9 6 8 5 8 6 9 11 14 10 6 6 7 6 4 11 12 15 15 14 11 11
8 7 6 6 5 7 6 8 8 8 11 10 10 10 11 10 9 11 12 14 17 17 13 10 6 6 6 4 4 7 9 15 15 8 5 5 5 8 11 10 8 11 13 9 8
7 6 6 6 6 6 6 6 7 5 8 10 10 8 10 10 12 13 15 15 18 16 12 9 6 3 5 7 10 10 9 9 13 11 9 7 8 5 6 10 5 10 9 7 7
7 8 7 7 6 5 6 7 8 6 7 9 8 10 11 10 14 12 18 20 16 10 11 8 7 8 11 10 8 13 7 6 7 7 10 9 7 9 7 5 11 7 5 5 8
8 7 7 8 5 5 4 5 5 6 8 7 8 11 12 12 14 17 19 18 13 9 12 9 7 8 6 8 3 2 3 4 5 4 8 7 6 8 7 3 2 4 4 7 10
9 9 8 8 6 5 5 5 6 6 6 9 10 10 11 12 16 18 16 16 16 17 14 8 6 6 4 9 3 7 3 2 3 2 8 9 9 6 5 2 3 3 5 8 10
Wind_Direction
277 278 279 280 281 283 284 286 288 290 290 292 291 292 293 295 294 289 282 277 275 271 272 268 265 264 260 255 251 251 253 255 252 253 258 257 254 255 254 251 250 250 253 239 223
274 275 277 278 279 282 284 286 288 289 290 292 293 293 295 297 294 285 283 280 279 277 274 270 268 263 260 256 249 246 252 254 254 254 255 254 252 250 256 252 250 249 241 232 223
272 273 274 276 279 282 284 286 289 290 291 291 292 293 294 296 289 280 283 285 284 280 278 275 270 265 259 256 250 249 252 256 255 252 253 254 253 249 248 252 249 242 234 230 231
270 271 274 276 279 282 285 287 289 290 291 292 293 294 294 290 287 280 287 285 282 279 279 276 268 265 263 257 253 252 254 253 255 256 255 253 254 249 243 246 250 244 234 234 234
270 272 274 277 280 282 285 288 290 291 292 292 292 292 292 287 284 287 290 287 284 280 275 272 271 270 261 262 255 255 256 254 254 252 252 252 250 249 247 242 248 245 244 239 239
269 271 274 277 281 284 286 288 290 291 292 291 291 290 288 289 287 290 288 289 286 282 278 274 270 267 268 264 257 258 257 255 253 251 250 248 249 246 246 240 244 244 242 244 240
268 271 274 278 281 286 289 292 293 293 294 293 292 290 289 286 291 291 291 289 288 285 279 275 271 267 266 268 262 258 258 256 251 250 248 247 247 243 242 240 243 242 241 243 241
268 271 274 278 282 287 290 292 292 293 294 293 293 292 290 291 292 292 294 294 289 284 282 280 271 267 263 262 259 260 257 253 251 247 245 241 248 244 240 240 243 242 242 242 243
267 270 275 279 284 288 291 292 291 292 292 290 294 292 293 296 296 297 298 296 294 288 283 280 276 266 265 262 257 248 250 248 253 244 244 238 247 245 239 239 241 242 242 244 244
265 269 274 280 286 289 293 293 291 292 294 293 290 295 291 298 300 299 299 298 294 293 285 280 277 270 261 254 250 250 251 252 250 243 242 241 244 243 237 239 242 240 241 240 241
263 268 274 281 286 290 296 293 298 294 301 295 292 295 296 301 303 303 302 300 298 294 285 280 273 266 264 256 254 254 255 247 245 244 241 240 242 242 239 238 241 239 239 240 245
263 269 275 281 284 290 295 299 298 297 304 298 293 296 298 304 304 305 305 301 299 293 290 282 268 268 265 259 251 247 247 248 243 240 244 240 243 239 234 240 239 237 238 239 242
263 270 274 279 283 286 293 304 305 306 305 301 299 303 309 310 308 310 312 306 301 301 295 286 278 276 262 260 249 238 237 241 237 234 239 240 241 240 236 239 246 234 235 236 231
263 269 273 279 278 287 295 304 307 310 307 301 307 309 314 313 312 317 314 306 304 304 298 295 297 282 270 257 243 236 230 235 232 233 232 229 238 235 230 234 235 233 230 231 232
262 268 273 275 276 285 296 306 305 310 311 312 316 314 318 320 317 319 314 303 297 284 291 290 301 301 266 253 237 233 218 227 230 228 224 224 232 235 234 232 238 238 238 234 234
261 268 270 267 275 284 299 305 309 309 309 312 321 320 320 321 325 324 327 311 295 283 273 289 302 310 287 257 232 213 210 225 223 213 225 225 226 234 230 230 236 239 238 236 228
260 265 266 268 271 294 300 306 310 313 320 321 321 322 320 325 327 340 341 348 357 318 309 300 302 288 261 244 220 200 201 203 208 214 224 211 222 234 234 234 235 239 237 230 218
261 263 260 262 284 296 303 311 312 322 326 323 321 322 329 334 325 340 348 354 352 342 321 327 327 322 285 234 211 200 198 194 207 205 208 213 230 241 246 229 238 243 210 207 207
256 253 255 270 283 292 305 310 314 320 326 323 323 336 328 329 329 342 356 354 345 339 328 322 341 346 293 318 215 180 190 204 213 200 212 227 235 251 238 226 208 186 185 192 193
246 251 254 265 279 292 304 303 321 330 328 325 336 337 329 331 340 351 347 346 339 338 324 311 317 338 287 283 183 186 188 197 215 221 221 239 215 212 183 172 162 165 176 187 190
238 251 253 265 271 293 297 307 322 324 325 329 332 332 327 329 335 342 346 338 347 332 330 314 316 326 325 156 148 164 195 188 184 208 202 205 208 200 195 184 167 164 166 177 196
239 246 251 244 275 284 300 313 320 323 328 335 325 330 329 322 322 338 333 338 349 348 338 328 305 320 275 261 247 237 201 201 197 211 207 174 164 140 138 156 170 178 180 183 193
239 239 249 237 269 286 292 312 315 330 336 340 329 334 332 325 320 317 324 326 345 348 350 334 309 324 348 331 20 196 227 205 211 204 208 200 145 142 144 151 148 171 177 198 219
236 240 246 245 260 274 313 316 325 336 335 339 332 344 333 325 320 308 314 318 327 326 328 340 322 300 293 288 252 253 270 250 209 210 211 207 171 150 158 182 153 165 182 223 247
233 240 238 249 261 281 294 301 307 343 346 341 336 354 342 326 320 319 317 320 322 312 322 335 319 314 308 307 253 225 244 244 208 232 219 205 175 183 174 150 199 205 213 246 270
224 235 245 258 240 254 273 292 338 341 340 322 339 338 335 324 320 315 315 311 302 300 319 307 298 318 341 342 198 119 210 221 202 222 175 178 167 167 185 183 229 243 261 270 292
232 242 238 249 246 250 255 284 302 309 313 318 319 318 319 328 323 312 303 298 286 285 290 277 291 311 292 334 177 56 1 188 108 34 224 203 191 186 182 187 354 290 288 297 297